TSC187 CYYZ-MDPC

Flight info

Callsign TSC187
Flight time N/A
Altitude 39000
Route RIGUS5 PSB J61 EMI/N0464F380 Q119 SCOOB DCT EARZZ DCT SKARP Y313 IDOLS DCT RROOO Y323 CARPX Y307 NUCAR/N0458F390 Y374 RUMFO Y441 JUELE UL463 PTA UW28 PETRI W28 BEREL BEREL2B
Aircraft A20N/M-SDE2E3FGHIRWXY/LB1

Departure

Time 2026-05-07 23:06
Airport Toronto Pearson International Airport (CYYZ)

Arrival

Time N/A
Airport Punta Cana International Airport (MDPC)
Time Latitude Longitude Altitude Speed Heading
2026-05-07 22:34 43.67917 -79.61562 567 ft 0 kts 317°
2026-05-07 22:50 43.67915 -79.61559 576 ft 2 kts 317°
2026-05-07 22:51 43.67902 -79.61544 577 ft 2 kts 320°
2026-05-07 22:51 43.67890 -79.61530 568 ft 2 kts 321°
2026-05-07 22:51 43.67877 -79.61515 572 ft 2 kts 318°
2026-05-07 22:51 43.67865 -79.61499 573 ft 2 kts 298°
2026-05-07 22:52 43.67865 -79.61482 574 ft 1 kts 236°
2026-05-07 22:52 43.67866 -79.61480 576 ft 0 kts 232°
2026-05-07 22:57 43.67862 -79.61487 574 ft 3 kts 232°
2026-05-07 22:57 43.67837 -79.61529 571 ft 7 kts 226°
2026-05-07 22:58 43.67794 -79.61585 574 ft 9 kts 223°
2026-05-07 22:58 43.67748 -79.61655 574 ft 11 kts 238°
2026-05-07 22:58 43.67769 -79.61751 572 ft 12 kts 309°
2026-05-07 22:58 43.67821 -79.61814 568 ft 9 kts 324°
2026-05-07 22:59 43.67874 -79.61869 566 ft 10 kts 328°
2026-05-07 22:59 43.67935 -79.61921 568 ft 11 kts 328°
2026-05-07 22:59 43.67971 -79.62009 564 ft 11 kts 260°
2026-05-07 22:59 43.67983 -79.62114 568 ft 11 kts 297°
2026-05-07 23:00 43.68033 -79.62193 560 ft 11 kts 319°
2026-05-07 23:00 43.68096 -79.62268 562 ft 13 kts 318°
2026-05-07 23:00 43.68175 -79.62367 564 ft 20 kts 315°
2026-05-07 23:00 43.68297 -79.62506 570 ft 27 kts 324°
2026-05-07 23:01 43.68403 -79.62676 567 ft 26 kts 323°
2026-05-07 23:01 43.68544 -79.62835 573 ft 28 kts 319°
2026-05-07 23:01 43.68691 -79.63030 562 ft 30 kts 315°
2026-05-07 23:01 43.68836 -79.63220 566 ft 31 kts 317°
2026-05-07 23:02 43.68986 -79.63421 566 ft 30 kts 313°
2026-05-07 23:02 43.69103 -79.63535 573 ft 5 kts 19°
2026-05-07 23:02 43.69139 -79.63508 568 ft 6 kts 34°
2026-05-07 23:02 43.69205 -79.63437 575 ft 18 kts 19°
2026-05-07 23:03 43.69328 -79.63420 570 ft 0 kts 353°
2026-05-07 23:03 43.69400 -79.63490 567 ft 14 kts 280°
2026-05-07 23:03 43.69392 -79.63539 572 ft 0 kts 227°
2026-05-07 23:05 43.69213 -79.63799 570 ft 84 kts 227°
2026-05-07 23:05 43.68576 -79.64706 616 ft 173 kts 224°
2026-05-07 23:05 43.67620 -79.66018 1145 ft 212 kts 223°
2026-05-07 23:06 43.66527 -79.67578 1849 ft 239 kts 229°
2026-05-07 23:06 43.65360 -79.69141 3338 ft 231 kts 226°
2026-05-07 23:06 43.64133 -79.70795 4140 ft 263 kts 229°
2026-05-07 23:06 43.62752 -79.72687 4811 ft 297 kts 227°
2026-05-07 23:07 43.61246 -79.74729 5360 ft 332 kts 227°
2026-05-07 23:07 43.59552 -79.77057 6309 ft 350 kts 227°
2026-05-07 23:07 43.57802 -79.79418 7658 ft 358 kts 225°
2026-05-07 23:07 43.56723 -79.80631 7642 ft 0 kts 214°